Home   Weather   Stockport   Past weeks

Flag for United Kingdom Past Weather in Stockport, England, United Kingdom — Yesterday and Last 2 Weeks

Now
45 °F

Quite cool.


Feels Like: 41 °F
Forecast: N/A
Wind: 6 mph from South

Location: Manchester Airport

Current Time: Jan 24, 2017 at 5:20:46 pm

Latest Report: Jan 24, 2017 at 4:20 pm


Visibility: N/A

Pressure: 30.24 "Hg

Humidity: 87%

Dew Point: 41 °F

Location of StockportLocation

Past Weather in Stockport — Graph

°F

Stockport Temperature Yesterday

Maximum temperature yesterday: 43 °F (at 2:50 pm)
Minimum temperature yesterday: 32 °F (at 12:20 am)
Average temperature yesterday: 37 °F

High & Low Weather Summary for the Past Weeks

 TemperatureHumidityPressure
High52 °F (Jan 11, 3:20 am)100% (Jan 13, 12:20 am)30.66 "Hg (Jan 13, 12:20 am)
Low30 °F (Jan 13, 3:50 am)53% (Jan 11, 2:20 pm)29.45 "Hg (Jan 12, 4:20 pm)
Average41 °F88%30.20 "Hg
* Reported Jan 9 3:20 pm — Jan 24 3:50 pm, Stockport, Weather by CustomWeather, © 2017

Note: Actual official high and low records may vary slightly from our data, if they occured in-between our weather recording intervals... More about our weather records

Advertising

Stockport Weather History for the Previous 24 Hours

Scroll right to see more
 ConditionsComfort  
Time TempWeatherWind HumidityBarometerVisibility
3:50 pm
Tue, Jan 24
45 °FQuite cool.5 mph87%30.24 "HgN/A
3:20 pm45 °FQuite cool.5 mph87%30.24 "HgN/A
2:50 pm45 °FQuite cool.7 mph87%30.24 "HgN/A
2:20 pm45 °FQuite cool.6 mph87%30.24 "HgN/A
1:50 pm45 °FScattered clouds.5 mph87%30.27 "HgN/A
1:20 pm45 °FPartly sunny.5 mph87%30.27 "HgN/A
12:50 pm45 °FQuite cool.5 mph87%30.27 "HgN/A
12:20 pm43 °FLight rain. Cloudy.6 mph87%30.27 "HgN/A
11:50 am43 °FLight rain. Cloudy.6 mph87%30.30 "HgN/A
11:20 am43 °FQuite cool.7 mph87%30.30 "HgN/A
10:50 am41 °FQuite cool.6 mph87%30.30 "HgN/A
10:20 am39 °FChilly.6 mph87%30.30 "Hg6 mi
9:50 am39 °FChilly.6 mph87%30.27 "HgN/A
9:20 am39 °FChilly.5 mph87%30.27 "HgN/A
8:50 am37 °FPassing clouds.5 mph87%30.27 "HgN/A
8:20 am37 °FChilly.5 mph87%30.27 "HgN/A
7:50 am37 °FPassing clouds.5 mph87%30.27 "HgN/A
7:20 am37 °FPassing clouds.3 mph87%30.27 "Hg4 mi
6:50 am37 °FChilly.3 mph87%30.24 "Hg6 mi
6:20 am36 °FChilly.5 mph93%30.24 "HgN/A
5:50 am36 °FChilly.3 mph93%30.24 "HgN/A
5:20 am36 °FChilly.5 mph93%30.24 "HgN/A
4:50 am36 °FChilly.3 mph87%30.24 "HgN/A
4:20 am36 °FChilly.3 mph87%30.27 "HgN/A
3:50 am36 °FChilly.5 mph87%30.27 "HgN/A
3:20 am36 °FChilly.3 mph87%30.27 "HgN/A
2:50 am36 °FChilly.3 mph93%30.27 "HgN/A
2:20 am36 °FChilly.5 mph93%30.27 "HgN/A
1:50 am36 °FChilly.5 mph93%30.27 "Hg5 mi
1:20 am36 °FChilly.5 mph93%30.27 "Hg5 mi
12:50 am37 °FChilly.5 mph93%30.27 "Hg4 mi
12:20 am37 °FChilly.3 mph93%30.27 "Hg4 mi
11:50 pm
Mon, Jan 23
37 °FChilly.5 mph93%30.27 "Hg4 mi
11:20 pm37 °FChilly.5 mph93%30.27 "Hg5 mi
10:50 pm37 °FChilly.3 mph93%30.30 "Hg4 mi
10:20 pm37 °FHaze.3 mph100%30.27 "Hg3 mi
9:50 pm39 °FFog.3 mph93%30.27 "Hg3 mi
9:20 pm37 °FFog.5 mph100%30.27 "Hg2 mi
8:50 pm37 °FFog.5 mph100%30.30 "Hg2 mi
8:20 pm37 °FFog.3 mph100%30.30 "Hg2 mi
7:50 pm39 °FFog.3 mph93%30.30 "Hg2 mi
7:20 pm39 °FHaze.3 mph93%30.30 "Hg3 mi
6:50 pm39 °FFog.3 mph93%30.30 "Hg3 mi
6:20 pm39 °FHaze.3 mph93%30.30 "Hg3 mi
5:50 pm39 °FHaze.2 mph93%30.30 "Hg3 mi
5:20 pm41 °FQuite cool.1 mph93%30.30 "Hg4 mi
Weather by CustomWeather, © 2017

See weather overviewHow to use our weather pages